TimeMST,TemperatureF,Dew PointF,Humidity,Sea Level PressureIn,VisibilityMPH,Wind Direction,Wind SpeedMPH,Gust SpeedMPH,PrecipitationIn,Events,Conditions,WindDirDegrees,DateUTC
12:48 AM,28.9,27.0,92,29.95,-9999.0,WNW,9.2,-,N/A,,Unknown,300,2013-02-10 07:48:00
1:48 AM,28.9,27.0,92,29.95,-9999.0,NW,9.2,-,N/A,,Unknown,310,2013-02-10 08:48:00
2:48 AM,30.0,26.1,85,29.95,-9999.0,NW,9.2,-,N/A,,Unknown,320,2013-02-10 09:48:00
3:48 AM,28.9,26.1,89,29.96,-9999.0,NW,13.8,-,N/A,,Unknown,310,2013-02-10 10:48:00
4:48 AM,28.9,26.1,89,29.99,-9999.0,NW,15.0,-,N/A,,Unknown,320,2013-02-10 11:48:00
5:48 AM,28.0,25.0,88,30.01,-9999.0,NW,16.1,-,N/A,,Unknown,320,2013-02-10 12:48:00
6:48 AM,27.0,23.0,85,30.03,-9999.0,NNW,17.3,-,N/A,,Unknown,330,2013-02-10 13:48:00
7:48 AM,26.1,21.9,84,30.06,-9999.0,NW,16.1,-,0.01,,Unknown,320,2013-02-10 14:48:00
8:48 AM,25.0,21.0,85,30.07,-9999.0,NW,20.7,-,N/A,,Unknown,320,2013-02-10 15:48:00
9:48 AM,25.0,21.0,85,30.09,-9999.0,NW,19.6,-,N/A,,Unknown,320,2013-02-10 16:48:00
10:48 AM,25.0,19.9,81,30.11,-9999.0,NNW,21.9,-,N/A,,Unknown,330,2013-02-10 17:48:00
11:48 AM,25.0,19.0,78,30.12,-9999.0,NNW,20.7,27.6,N/A,,Unknown,330,2013-02-10 18:48:00
12:48 PM,24.1,17.1,75,30.13,-9999.0,NW,18.4,28.8,N/A,,Unknown,320,2013-02-10 19:48:00
1:48 PM,23.0,18.0,81,30.14,-9999.0,NNW,18.4,-,N/A,,Unknown,330,2013-02-10 20:48:00
2:48 PM,23.0,16.0,74,30.14,-9999.0,NNW,20.7,26.5,N/A,,Unknown,330,2013-02-10 21:48:00
3:48 PM,21.0,16.0,81,30.17,-9999.0,NW,17.3,26.5,N/A,,Unknown,320,2013-02-10 22:48:00
4:48 PM,19.9,15.1,81,30.17,-9999.0,NW,19.6,-,N/A,,Unknown,320,2013-02-10 23:48:00
5:48 PM,19.0,14.0,81,30.19,-9999.0,NW,18.4,-,N/A,,Unknown,310,2013-02-11 00:48:00
6:48 PM,19.0,14.0,81,30.20,-9999.0,NW,13.8,-,N/A,,Unknown,320,2013-02-11 01:48:00
7:48 PM,19.0,14.0,81,30.22,-9999.0,NW,13.8,-,N/A,,Unknown,320,2013-02-11 02:48:00
8:48 PM,19.0,14.0,81,30.25,-9999.0,NNW,8.1,-,N/A,,Unknown,330,2013-02-11 03:48:00
9:48 PM,18.0,14.0,84,30.25,-9999.0,NNW,10.4,-,N/A,,Unknown,330,2013-02-11 04:48:00
10:48 PM,18.0,12.9,81,30.24,-9999.0,NW,8.1,-,N/A,,Unknown,310,2013-02-11 05:48:00
11:48 PM,14.0,10.9,88,30.24,-9999.0,NW,5.8,-,N/A,,Unknown,320,2013-02-11 06:48:00